Location: Kaarina
(60.4167°N, 22.4167°E)
Time: 15:27:22
(UTC+03:00)

USA 245 - Pass Details

Date: 24 August 2019
Orbit: 266 x 999 km, 97.9° (Epoch: 04 October)

Event Time Altitude Azimuth Distance (km) Brightness Sun altitude
Exits shadow 22:18:19 - 165° (SSE) 2,668 6.3 -8.9°
Reaches altitude 10° 22:19:08 10° 166° (SSE) 2,355 6.0 -9.0°
Maximum altitude 22:24:30 82° 254° (WSW) 911 4.4 -9.5°
Drops below altitude 10° 22:30:46 10° 343° (NNW) 2,735 7.9 -10.0°
Sets 22:33:24 0° 344° (NNW) 3,725 8.7 -10.2°
